FW2523 Weather Reports


Display with metric or nautical units.
time (UTC)temp
F
wind
direction
speed
MPH
gust
MPH
rain 1hr
in
rain 24hr
in
rain mn
in
humidity
%
barometer
mb
20260508174538 69 340 1.0 5.0 0.00 0.00 0.00 34 1017.3
20260508173040 70 136 1.0 4.0 0.00 0.00 0.00 33 1017.7
20260508171506 68 288 0.0 3.0 0.00 0.00 0.00 33 1017.7
20260508170006 68 147 1.0 7.0 0.00 0.00 0.00 32 1017.9
20260508164502 69 190 0.0 5.0 0.00 0.00 0.00 35 1018.3
20260508163002 68 360 0.0 4.0 0.00 0.00 0.00 30 1018.4
20260508161602 69 134 1.0 5.0 0.00 0.00 0.00 34 1018.5
20260508160100 67 305 2.0 4.0 0.00 0.00 0.00 34 1018.7
20260508154559 68 312 1.0 4.0 0.00 0.00 0.00 34 1019.0
20260508153102 67 145 1.0 7.0 0.00 0.00 0.00 31 1019.0
20260508151604 67 320 0.0 3.0 0.00 0.05 0.00 36 1019.1
20260508150055 65 302 0.0 7.0 0.00 0.05 0.00 39 1019.1
20260508144558 65 265 1.0 3.0 0.00 0.05 0.00 36 1019.3
20260508143054 64 300 1.0 5.0 0.00 0.05 0.00 40 1019.3
20260508141559 63 143 0.0 5.0 0.00 0.06 0.00 42 1019.5
20260508140055 61 360 2.0 6.0 0.00 0.06 0.00 43 1019.5
20260508134545 60 360 1.0 5.0 0.00 0.06 0.00 45 1019.4
20260508133050 60 360 1.0 4.0 0.00 0.06 0.00 42 1019.3
20260508131543 58 360 1.0 4.0 0.00 0.14 0.00 45 1019.3
20260508130044 56 360 0.0 4.0 0.00 0.14 0.00 49 1019.2
20260508124510 54 360 0.0 0.0 0.00 0.14 0.00 50 1019.0
20260508123009 53 360 0.0 0.0 0.00 0.14 0.00 47 1018.9
20260508121540 51 360 0.0 0.0 0.00 0.19 0.00 52 1018.8
20260508120039 49 360 0.0 0.0 0.00 0.19 0.00 52 1018.5
20260508114534 48 360 0.0 0.0 0.00 0.19 0.00 51 1018.4
20260508113032 47 360 0.0 0.0 0.00 0.19 0.00 50 1018.1
20260508111543 47 360 0.0 0.0 0.00 0.20 0.00 50 1017.8
20260508110027 47 360 0.0 0.0 0.00 0.20 0.00 47 1017.5
20260508104558 47 360 0.0 1.0 0.00 0.20 0.00 47 1017.2
20260508103123 47 360 0.0 1.0 0.00 0.20 0.00 47 1016.9
20260508101556 47 360 0.0 1.0 0.00 0.20 0.00 46 1016.5
20260508100047 47 360 0.0 1.0 0.00 0.20 0.00 46 1016.5
20260508094603 48 360 0.0 0.0 0.00 0.20 0.00 47 1016.3
20260508093044 48 360 0.0 0.0 0.00 0.20 0.00 48 1016.3
20260508091513 48 360 0.0 0.0 0.00 0.21 0.00 48 1016.4
20260508090011 48 360 0.0 1.0 0.00 0.21 0.00 48 1016.1
20260508084508 49 360 0.0 0.0 0.00 0.21 0.00 50 1016.1
20260508083005 49 360 0.0 0.0 0.00 0.21 0.00 51 1015.8
20260508081505 49 360 0.0 0.0 0.00 0.37 0.00 53 1015.6
20260508080002 49 360 0.0 0.0 0.00 0.37 0.00 55 1015.6
20260508074555 50 360 0.0 0.0 0.00 0.37 0.00 56 1015.5
20260508073054 50 360 0.0 0.0 0.00 0.37 0.00 57 1015.5
20260508071552 51 360 0.0 0.0 0.00 0.46 0.00 58 1015.4
20260508070050 51 360 0.0 0.0 0.00 0.46 0.00 60 1015.3
20260508064554 51 360 0.0 0.0 0.00 0.46 0.00 60 1015.2
20260508063045 52 360 0.0 0.0 0.00 0.46 0.00 60 1015.1
20260508061544 52 360 0.0 0.0 0.00 0.69 0.00 61 1015.1
20260508060041 52 360 0.0 0.0 0.00 0.69 0.00 62 1015.1
20260508054537 53 360 0.0 0.0 0.00 0.69 0.00 63 1015.2
20260508053036 53 360 0.0 0.0 0.00 0.69 0.00 62 1015.2
20260508051533 54 360 0.0 0.0 0.00 0.69 0.00 61 1015.0
20260508050030 55 360 0.0 0.0 0.00 0.69 0.00 59 1014.9
20260508044527 55 360 0.0 0.0 0.00 0.69 0.00 58 1014.8
20260508043023 56 360 0.0 0.0 0.00 0.69 0.00 56 1014.7
20260508041521 57 360 0.0 0.0 0.00 0.85 0.00 56 1014.7
20260508040023 58 360 0.0 0.0 0.00 0.85 0.00 55 1014.6
20260508034518 58 254 0.0 0.0 0.00 0.85 0.00 54 1014.6
20260508033016 58 360 0.0 2.0 0.00 0.85 0.00 56 1014.5
20260508031522 58 360 0.0 0.0 0.00 1.06 0.00 54 1014.5
20260508030014 59 360 0.0 0.0 0.00 1.06 0.00 54 1014.6
20260508024509 59 360 0.0 1.0 0.00 1.06 0.00 54 1014.3
20260508023014 59 360 0.0 1.0 0.00 1.06 0.00 55 1014.3
20260508021503 60 360 0.0 3.0 0.00 1.41 0.00 55 1013.9
20260507201501 77 125 1.0 4.0 0.00 1.63 0.00 49 1007.5
20260507200104 77 306 1.0 5.0 0.00 1.63 0.00 48 1007.7
20260507194557 78 167 1.0 8.0 0.00 1.63 0.00 46 1007.8
20260507193052 77 184 1.0 4.0 0.00 1.63 0.00 45 1008.0
20260507191551 77 333 2.0 5.0 0.00 1.63 0.00 42 1008.3
20260507190044 77 315 1.0 4.0 0.00 1.63 0.00 37 1008.7
20260507184541 77 334 1.0 5.0 0.00 1.63 0.00 33 1008.7
20260507183040 77 301 1.0 4.0 0.00 1.63 0.00 32 1008.9
20260507181535 75 318 1.0 4.0 0.00 1.63 0.00 34 1008.8
20260507180030 74 340 1.0 7.0 0.00 1.63 0.00 36 1008.7